Volver al catálogo

STARLINK-35461

ActivoComunicacionesVLEO
NORAD 66088·PAYLOAD·🇺🇸 United States

Lanzado Oct 19, 2025 desde Vandenberg Space Force Base

Loading…

Próximos Pases (próximas 24 horas)

TLE

ActualizadoSource: CelesTrak SupGP

Época: Sep 15, 2026, 04:02 UTC

1 66088C 25236C   26258.16854167  .00008286  00000+0  24479-3 0  2587
2 66088  53.1573 302.3336 0001362  96.9372 306.5668 15.34388439    15

Sigue STARLINK-35461 en tiempo real con AllMySat

Download on the App Store